sat.trackr.live / text

‹ back to catalog

STARLINK-30482

NORAD 57907 · 2023-146S

PAYLOAD ACTIVE UNKNOWN

§ Identity

Operator
Country
US
Launch date
2023-09-20
Launch site
AFETR
Launch vehicle
Mass (kg)
RCS (m²)

Purposes: comms

External: N2YO · Heavens-Above · Gunter

§ Orbital elements

Epoch: 2026-09-19T09:08:38.364576Z

Period
94.27 min
Inclination
43.0043°
Eccentricity
0.0001626
Mean motion
15.27577058 rev/d
Perigee alt
481.9 km
Apogee alt
484.2 km
Semi-major
6,861.2 km
B*
2.4427e-5
RAAN
300.7797°
Arg perigee
273.3903°
Mean anomaly
86.6763°
Rev number
16,562

§ Raw data

STARLINK-304821 57907U 23146S   26262.38099959  .00000410  00000+0  24427-4 0  99912 57907  43.0043 300.7797 0001626 273.3903  86.6763 15.27577058165622

JSON: /api/v1/satellites/57907 · /tle

For live sub-satellite position, see the globe view (requires WebGL).

§ Visibility from observer

Set your observer location to see the next 7 days of passes ≥ 10°. The values pass through the URL so the page stays shareable.

No JS? Fill the form by hand. The geolocation button needs JavaScript.